Location: Tierra del Sol
(32.6128°N, 116.3319°W)
Time: 19:45:13
(UTC-07:00)

Vanguard 2 - All Passes

Search period start: 24 April 2018 00:00
Search period end: 04 May 2018 00:00
Orbit: 553 x 2939 km, 32.9° (Epoch: 24 April)

Date Brightness Start Highest point End Pass type
(mag) Time Alt. Az. Time Alt. Az. Time Alt. Az.
24 Apr - 00:01:59 10° W 00:10:37 90° NNW 00:15:51 10° E visible
24 Apr - 02:13:30 10° W 02:19:15 72° SSW 02:23:22 10° ESE night (unlit)
24 Apr - 04:24:05 10° WSW 04:26:55 18° SSW 04:29:39 10° SSE visible
24 Apr - 17:51:03 10° S 17:57:58 14° SE 18:03:58 10° ESE daylight
24 Apr - 19:56:18 10° SSW 20:09:09 37° SSE 20:17:40 10° E visible
24 Apr - 22:07:39 10° WSW 22:19:26 70° SSE 22:26:16 10° E visible
25 Apr - 00:20:24 10° W 00:28:47 87° N 00:33:53 10° E visible
25 Apr - 02:31:47 10° W 02:37:15 55° SSW 02:41:15 10° ESE night (unlit)
25 Apr - 04:44:13 10° SW 04:44:44 10° SW 04:45:15 10° SSW visible
25 Apr - 18:05:40 10° S 18:16:16 21° SSE 18:24:46 10° ESE daylight
25 Apr - 20:13:39 10° SW 20:27:23 47° SSE 20:36:05 10° E visible
25 Apr - 22:25:57 10° WSW 22:37:36 80° SSE 22:44:19 10° E visible
26 Apr - 00:38:49 10° W 00:46:56 90° NNE 00:51:56 10° E visible
26 Apr - 02:50:09 10° W 02:55:09 38° SSW 02:58:59 10° SE night (unlit)
26 Apr - 18:21:39 10° SSW 18:34:33 28° SSE 18:44:15 10° E daylight
26 Apr - 20:31:22 10° SW 20:45:36 57° SSE 20:54:20 10° E visible
26 Apr - 22:44:22 10° W 22:55:48 88° S 23:02:23 10° E visible
27 Apr - 00:57:13 10° W 01:05:03 82° SSW 01:09:56 10° ESE visible
27 Apr - 03:08:40 10° W 03:12:58 25° SSW 03:16:25 10° SSE night (unlit)
27 Apr - 16:34:57 10° SSE 16:41:15 13° SE 16:47:05 10° ESE daylight
27 Apr - 18:38:20 10° SSW 18:52:46 37° SSE 19:03:08 10° E daylight
27 Apr - 20:49:22 10° WSW 21:03:50 68° SSE 21:12:29 10° E visible
27 Apr - 23:02:52 10° W 23:14:01 88° N 23:20:26 10° E visible
28 Apr - 01:15:35 10° W 01:23:08 68° SSW 01:27:53 10° ESE visible
28 Apr - 03:27:37 10° WSW 03:30:41 16° SW 03:33:19 10° S night (unlit)
28 Apr - 16:48:46 10° S 16:59:29 19° SE 17:08:48 10° ESE daylight
28 Apr - 18:55:30 10° SW 19:10:59 46° SSE 19:21:40 10° E daylight
28 Apr - 21:07:36 10° WSW 21:22:03 78° SSE 21:30:35 10° E visible
28 Apr - 23:21:23 10° W 23:32:14 88° N 23:38:29 10° E visible
29 Apr - 01:33:58 10° W 01:41:05 53° SSW 01:45:43 10° SE visible
29 Apr - 17:04:23 10° SSW 17:17:39 27° SE 17:28:42 10° E daylight
29 Apr - 19:13:04 10° SW 19:29:13 56° SSE 19:40:01 10° E daylight
29 Apr - 21:26:01 10° WSW 21:40:18 85° S 21:48:40 10° E visible
29 Apr - 23:39:53 10° W 23:50:26 87° S 23:56:32 10° E visible
30 Apr - 01:52:26 10° W 01:58:56 38° SSW 02:03:20 10° SE night (unlit)
30 Apr - 15:21:45 10° SE 15:24:19 10° SE 15:26:52 10° SE daylight
30 Apr - 17:20:48 10° SSW 17:35:47 35° SSE 17:47:52 10° E daylight
30 Apr - 19:30:55 10° SW 19:47:26 66° SSE 19:58:15 10° E visible
30 Apr - 21:44:31 10° W 21:58:34 90° NW 22:06:45 10° E visible
30 Apr - 23:58:22 10° W 00:08:34 79° SSW 00:14:31 10° ESE visible
01 May - 02:11:06 10° W 02:16:39 26° SW 02:20:40 10° SSE night (unlit)
01 May - 15:32:55 10° S 15:42:25 17° SE 15:51:27 10° ESE daylight
01 May - 17:37:45 10° SSW 17:53:56 44° SSE 18:06:35 10° E daylight
01 May - 19:49:02 10° WSW 20:05:42 75° SSE 20:16:24 10° E visible
01 May - 22:03:06 10° W 22:16:52 88° N 22:24:50 10° E visible
02 May - 00:16:49 10° W 00:26:38 66° SSW 00:32:26 10° ESE visible
02 May - 02:30:11 10° W 02:34:14 17° SW 02:37:27 10° S night (unlit)
02 May - 15:47:57 10° S 16:00:27 24° SE 16:12:05 10° E daylight
02 May - 17:55:07 10° SW 18:12:06 53° SSE 18:25:03 10° E daylight
02 May - 20:07:21 10° WSW 20:24:01 83° SSE 20:34:32 10° E visible
02 May - 22:21:41 10° W 22:35:09 90° NNE 22:42:55 10° E visible
03 May - 00:35:17 10° W 00:44:34 52° SSW 00:50:11 10° SE visible
03 May - 16:04:03 10° SSW 16:18:26 32° SE 16:31:37 10° E daylight
03 May - 18:12:48 10° SW 18:30:18 63° SSE 18:43:22 10° E daylight
03 May - 20:25:49 10° WSW 20:42:21 88° S 20:52:40 10° E visible
03 May - 22:40:15 10° W 22:53:24 85° S 23:00:57 10° ESE visible
